Location: *
(44.1392°N, 4.8079°E)
Time: 22:49:48
(UTC+00:00)

Cosmos 2228 Rocket - Pass Details

Date: 21 June 2021
Orbit: 616 x 653 km, 82.5° (Epoch: 02 August)

Event Time Altitude Azimuth Distance (km) Brightness Sun altitude
Rises 03:05:33 0° 355° (N) 2,957 7.2 -8.0°
Reaches altitude 10° 03:07:51 10° 359° (N) 2,037 6.4 -7.7°
Maximum altitude 03:12:19 59° 79° (E) 737 3.8 -7.1°
Drops below altitude 10° 03:16:41 10° 159° (SSE) 1,998 5.5 -6.6°
Sets 03:18:55 0° 163° (SSE) 2,894 6.2 -6.3°
